Frankfort, MI

4:14 AM EDT on April 20, 2018 (GMT -0400)
Frankfort

Weather History for KFKS - February, 2014

Change the Weather History Date:

Sunday, February 9, 2014

  Actual Average (KMBL) Record (KMBL)
Temperature  
Mean Temperature 16 °F -  
Max Temperature 23 °F 30 °F 50 °F (1990)
Min Temperature 12 °F 13 °F -10 °F (1978)
Degree Days  
Heating Degree Days 48    
Moisture  
Dew Point 12 °F    
Average Humidity 81    
Maximum Humidity 91    
Minimum Humidity 61    
Precipitation  
Precipitation 0.00 in - - ()
Sea Level Pressure  
Sea Level Pressure 30.07 in    
Wind  
Wind Speed 2 mph (NNW)    
Max Wind Speed 10 mph    
Max Gust Speed 16 mph    
Visibility 5 miles    
Events Snow    
Averages and records for this station are not official NWS values.
T = Trace of Precipitation, MM = Missing Value Source: NWS Daily Summary

Daily Weather History Graph

Daily Weather History Graph

Search for Another Location

Airport or City:

Astronomy

Feb. 09, 2014 Rise Set
Actual Time 7:53 AM EST 6:05 PM EST
Civil Twilight 7:23 AM EST 6:35 PM EST
Nautical Twilight 6:48 AM EST 7:09 PM EST
Astronomical Twilight 6:14 AM EST 7:43 PM EST
Moon 1:40 PM EST (2/9) 4:02 AM EST (2/9)
Length of Visible Light 11h 12m
Length of Day
10h 11m
Waxing Gibbous, 77% of the Moon is Illuminated
Feb 9
Waxing Gibbous
Feb 14
Full
Feb 22
Last Quarter
Mar 1
New
Mar 8
First Quarter

Hourly Weather History & Observations

Time (EST) Temp. Windchill Dew Point Humidity Pressure Visibility Wind Dir Wind Speed Gust Speed Precip Events Conditions
12:13 AM 16.5 °F - 13.6 °F 88% 30.10 in 2.0 mi Calm Calm - N/A Snow Light Snow
12:33 AM 16.3 °F - 13.6 °F 89% 30.10 in 1.8 mi Calm Calm - N/A Snow Light Snow
12:53 AM 16.2 °F - 13.5 °F 89% 30.09 in 1.8 mi Calm Calm - N/A Snow Light Snow
1:13 AM 15.8 °F - 13.3 °F 90% 30.08 in 1.8 mi Calm Calm - N/A Snow Light Snow
1:33 AM 15.8 °F - 13.1 °F 89% 30.08 in 1.5 mi Calm Calm - N/A Snow Light Snow
1:53 AM 15.8 °F - 13.1 °F 89% 30.08 in 1.8 mi Calm Calm - N/A Snow Light Snow
2:13 AM 15.8 °F - 13.1 °F 89% 30.08 in 1.2 mi Calm Calm - N/A Snow Light Snow
2:33 AM 15.8 °F - 13.1 °F 89% 30.08 in 2.0 mi Calm Calm - N/A Snow Light Snow
2:53 AM 15.6 °F - 13.1 °F 90% 30.07 in 1.8 mi Calm Calm - N/A Snow Light Snow
3:14 AM 15.4 °F - 13.1 °F 90% 30.07 in 1.8 mi Calm Calm - N/A Snow Light Snow
3:34 AM 15.4 °F - 13.1 °F 90% 30.06 in 2.0 mi Calm Calm - N/A Snow Light Snow
3:54 AM 15.6 °F - 13.1 °F 90% 30.05 in 2.5 mi Calm Calm - N/A Snow Light Snow
4:14 AM 15.3 °F - 12.7 °F 90% 30.05 in 1.8 mi Calm Calm - N/A Snow Light Snow
4:34 AM 14.0 °F - 11.8 °F 91% 30.05 in 3.0 mi Calm Calm - N/A Snow Light Snow
4:54 AM 14.5 °F - 12.2 °F 90% 30.05 in 2.5 mi Calm Calm - N/A Snow Light Snow
5:14 AM 14.2 °F - 10.9 °F 87% 30.05 in 2.0 mi Calm Calm - N/A Snow Light Snow
5:34 AM 13.6 °F - 10.9 °F 89% 30.05 in 3.0 mi Calm Calm - N/A Snow Light Snow
5:54 AM 13.5 °F - 10.8 °F 89% 30.05 in 2.5 mi Calm Calm - N/A Snow Light Snow
6:15 AM 13.1 °F - 10.9 °F 91% 30.05 in 3.0 mi Calm Calm - N/A Snow Light Snow
6:35 AM 12.9 °F - 10.4 °F 90% 30.05 in 3.0 mi Calm Calm - N/A Snow Light Snow
6:55 AM 13.6 °F - 11.1 °F 90% 30.05 in 3.0 mi Calm Calm - N/A Snow Light Snow
7:15 AM 14.0 °F - 11.1 °F 88% 30.05 in 1.8 mi Calm Calm - N/A Snow Light Snow
7:35 AM 14.0 °F - 11.3 °F 89% 30.05 in 1.8 mi Calm Calm - N/A Snow Light Snow
7:55 AM 16.2 °F - 13.1 °F 88% 30.05 in 1.2 mi Calm Calm - N/A Snow Snow
8:15 AM 14.4 °F - 10.9 °F 86% 30.05 in 0.5 mi Calm Calm - N/A Snow Snow
8:35 AM 14.2 °F - 11.1 °F 88% 30.05 in 0.5 mi Calm Calm - N/A Snow Snow
8:55 AM 16.0 °F - 12.2 °F 85% 30.05 in 0.5 mi Calm Calm - N/A Snow Snow
9:16 AM 14.7 °F - 12.0 °F 89% 30.05 in 1.0 mi Calm Calm - N/A Snow Light Snow
9:36 AM 16.9 °F - 13.8 °F 88% 30.05 in 0.8 mi Calm Calm - N/A Snow Light Snow
9:56 AM 15.4 °F - 12.7 °F 89% 30.05 in 1.8 mi Calm Calm - N/A Snow Light Snow
10:16 AM 16.7 °F - 13.1 °F 86% 30.05 in 1.5 mi Calm Calm - N/A Snow Light Snow
10:31 AM 16.5 °F - 13.6 °F 88% 30.05 in 2.5 mi Calm Calm - N/A Snow Light Snow
10:51 AM 17.4 °F - 14.0 °F 86% 30.05 in 1.8 mi Calm Calm - N/A Snow Light Snow
11:11 AM 18.9 °F - 15.4 °F 87% 30.05 in 4.0 mi Calm Calm - N/A Snow Light Snow
11:31 AM 20.5 °F 15.6 °F 16.2 °F 83% 30.05 in 2.5 mi WNW 3.5 mph - N/A Snow Light Snow
11:51 AM 21.0 °F - 15.6 °F 80% 30.05 in 3.0 mi Calm Calm - N/A Snow Light Snow
12:12 PM 21.0 °F 14.6 °F 15.1 °F 78% 30.04 in 5.0 mi West 4.6 mph - N/A Snow Light Snow
12:32 PM 20.8 °F 11.2 °F 14.5 °F 77% 30.04 in 3.0 mi WNW 8.1 mph - N/A Snow Light Snow
12:52 PM 20.7 °F 10.2 °F 13.6 °F 74% 30.04 in 7.0 mi WNW 9.2 mph - N/A Snow Light Snow
1:12 PM 21.4 °F 11.9 °F 14.2 °F 74% 30.04 in 10.0 mi WNW 8.1 mph - N/A   Scattered Clouds
1:32 PM 21.0 °F 10.6 °F 13.8 °F 74% 30.03 in 4.0 mi NNW 9.2 mph - N/A Snow Light Snow
1:52 PM 20.7 °F 11.9 °F 13.8 °F 75% 30.03 in 5.0 mi North 6.9 mph - N/A Snow Light Snow
2:12 PM 19.4 °F 10.4 °F 14.9 °F 83% 30.03 in 1.2 mi North 6.9 mph - N/A Snow Light Snow
2:32 PM 19.4 °F 12.8 °F 14.9 °F 83% 30.03 in 1.5 mi NNW 4.6 mph - N/A Snow Light Snow
2:52 PM 19.4 °F 10.4 °F 14.0 °F 80% 30.03 in 2.0 mi North 6.9 mph - N/A Snow Light Snow
3:13 PM 19.4 °F 11.5 °F 13.6 °F 78% 30.04 in 3.0 mi North 5.8 mph - N/A Snow Light Snow
3:33 PM 19.8 °F 9.1 °F 10.6 °F 68% 30.05 in 10.0 mi NNW 9.2 mph - N/A   Overcast
3:53 PM 19.4 °F 10.4 °F 9.9 °F 66% 30.05 in 10.0 mi NNW 6.9 mph - N/A   Overcast
4:13 PM 19.2 °F 11.3 °F 9.9 °F 67% 30.06 in 10.0 mi NNW 5.8 mph - N/A   Overcast
4:33 PM 19.0 °F 10.0 °F 9.5 °F 66% 30.06 in 10.0 mi NW 6.9 mph - N/A   Overcast
4:53 PM 18.9 °F 9.8 °F 9.7 °F 67% 30.07 in 10.0 mi NW 6.9 mph - N/A   Overcast
5:13 PM 18.7 °F 10.6 °F 8.8 °F 65% 30.08 in 10.0 mi NW 5.8 mph - N/A   Overcast
5:33 PM 18.5 °F 11.7 °F 7.7 °F 63% 30.08 in 10.0 mi NW 4.6 mph - N/A   Overcast
5:53 PM 18.3 °F - 7.7 °F 63% 30.08 in 10.0 mi Calm Calm - N/A   Overcast
6:14 PM 18.0 °F - 8.2 °F 66% 30.09 in 10.0 mi Calm Calm - N/A   Overcast
6:34 PM 18.3 °F 13.1 °F 8.1 °F 64% 30.10 in 10.0 mi NW 3.5 mph - N/A   Overcast
6:54 PM 18.5 °F 11.7 °F 7.3 °F 62% 30.11 in 10.0 mi NW 4.6 mph - N/A   Overcast
7:14 PM 18.3 °F 9.1 °F 7.0 °F 61% 30.11 in 10.0 mi NW 6.9 mph - N/A   Overcast
7:34 PM 18.5 °F 10.4 °F 7.0 °F 61% 30.12 in 10.0 mi NW 5.8 mph - N/A   Overcast
7:54 PM 18.3 °F 13.1 °F 8.1 °F 64% 30.12 in 10.0 mi NNE 3.5 mph - N/A   Overcast
8:14 PM 18.1 °F - 9.5 °F 69% 30.12 in 10.0 mi Calm Calm - N/A   Overcast
8:34 PM 17.2 °F - 9.5 °F 72% 30.12 in 10.0 mi Calm Calm - N/A   Overcast
8:54 PM 16.0 °F - 9.1 °F 74% 30.13 in 10.0 mi Calm Calm - N/A   Overcast
9:15 PM 16.7 °F - 10.4 °F 76% 30.13 in 5.0 mi Calm Calm - N/A Snow Light Snow
9:35 PM 17.6 °F 10.7 °F 10.2 °F 73% 30.14 in 10.0 mi NNE 4.6 mph - N/A   Overcast
9:55 PM 17.2 °F 11.9 °F 12.0 °F 80% 30.14 in 10.0 mi North 3.5 mph - N/A   Overcast
10:15 PM 17.1 °F 11.7 °F 12.9 °F 84% 30.14 in 7.0 mi NNE 3.5 mph - N/A Snow Light Snow
10:35 PM 17.1 °F 11.7 °F 13.1 °F 84% 30.14 in 7.0 mi North 3.5 mph - N/A Snow Light Snow
10:55 PM 16.2 °F 6.5 °F 12.4 °F 85% 30.15 in 2.5 mi North 6.9 mph 16.1 mph N/A Snow Light Snow
11:15 PM 15.6 °F 5.9 °F 12.0 °F 86% 30.15 in 3.0 mi North 6.9 mph - N/A Snow Light Snow
11:35 PM 14.7 °F 2.1 °F 10.9 °F 85% 30.15 in 5.0 mi NNE 10.4 mph 16.1 mph N/A Snow Light Snow
11:56 PM 14.0 °F 2.0 °F 10.0 °F 84% 30.16 in 5.0 mi NNE 9.2 mph - N/A Snow Light Snow